QPF
0.00 0.00 0.00 0.00 0.00 0.00 0.00 0.01 0.01 0.00 0.00 0.00 0.00 0.00 0.01 0.04 0.07 0.09 0.06 0.03 0.01 0.01 0.01 0.02 0.03 0.05 0.04 0.02 0.00 0.00 0.00 0.00 0.00 0.00 0.00 0.00 0.00 0.00
0.00 0.00 0.00 0.00 0.00 0.00 0.00 0.00 0.00 0.01 0.01 0.00 0.00 0.00 0.00 0.04 0.07 0.07 0.03 0.08 0.06 0.03 0.01 0.01 0.01 0.02 0.03 0.02 0.01 0.00 0.00 0.00 0.00 0.00 0.00 0.00 0.00 0.00
0.00 0.00 0.00 0.00 0.00 0.00 0.00 0.00 0.00 0.00 0.00 0.00 0.00 0.00 0.00 0.01 0.03 0.10 0.12 0.09 0.06 0.04 0.03 0.02 0.01 0.01 0.01 0.01 0.01 0.00 0.00 0.00 0.00 0.00 0.00 0.00 0.00 0.00
0.00 0.00 0.00 0.00 0.00 0.00 0.00 0.00 0.00 0.00 0.00 0.00 0.00 0.00 0.00 0.00 0.00 0.01 0.05 0.08 0.08 0.09 0.05 0.03 0.02 0.01 0.01 0.01 0.01 0.01 0.00 0.00 0.00 0.00 0.00 0.00 0.00 0.00
0.00 0.00 0.00 0.00 0.00 0.00 0.00 0.00 0.00 0.00 0.00 0.00 0.00 0.00 0.00 0.00 0.00 0.00 0.04 0.10 0.09 0.07 0.06 0.05 0.04 0.02 0.01 0.01 0.01 0.01 0.01 0.00 0.00 0.00 0.00 0.00 0.00 0.00
0.00 0.00 0.00 0.00 0.00 0.00 0.00 0.00 0.00 0.00 0.00 0.00 0.00 0.00 0.00 0.00 0.00 0.00 0.01 0.04 0.12 0.18 0.19 0.10 0.06 0.04 0.03 0.01 0.01 0.01 0.01 0.01 0.00 0.00 0.00 0.00 0.00 0.00
0.00 0.00 0.00 0.00 0.00 0.01 0.03 0.03 0.02 0.02 0.01 0.01 0.01 0.00 0.00 0.00 0.00 0.00 0.00 0.01 0.02 0.09 0.24 0.26 0.16 0.09 0.03 0.03 0.02 0.02 0.01 0.01 0.01 0.00 0.00 0.00 0.00 0.00
0.01 0.01 0.00 0.00 0.00 0.00 0.01 0.01 0.03 0.04 0.05 0.03 0.01 0.01 0.00 0.00 0.00 0.00 0.00 0.00 0.01 0.04 0.12 0.19 0.29 0.25 0.08 0.02 0.01 0.00 0.02 0.02 0.01 0.00 0.00 0.00 0.00 0.00
0.01 0.00 0.00 0.00 0.00 0.00 0.00 0.00 0.01 0.01 0.03 0.05 0.06 0.03 0.02 0.00 0.00 0.00 0.00 0.00 0.00 0.05 0.17 0.13 0.17 0.31 0.22 0.08 0.02 0.00 0.00 0.00 0.01 0.00 0.00 0.00 0.01 0.00
0.00 0.00 0.00 0.00 0.00 0.00 0.00 0.00 0.00 0.00 0.00 0.00 0.00 0.00 0.00 0.00 0.00 0.00 0.00 0.00 0.00 0.01 0.06 0.12 0.07 0.11 0.10 0.11 0.05 0.01 0.00 0.00 0.00 0.00 0.00 0.00 0.00 0.01
0.00 0.00 0.00 0.00 0.01 0.01 0.01 0.03 0.01 0.00 0.00 0.00 0.00 0.00 0.00 0.01 0.00 0.01 0.01 0.01 0.00 0.00 0.01 0.08 0.08 0.10 0.06 0.04 0.04 0.01 0.00 0.00 0.00 0.00 0.00 0.00 0.00 0.01
0.00 0.00 0.00 0.01 0.01 0.02 0.03 0.06 0.06 0.01 0.01 0.00 0.00 0.00 0.00 0.00 0.00 0.01 0.01 0.01 0.00 0.00 0.00 0.08 0.08 0.17 0.21 0.08 0.03 0.01 0.00 0.00 0.00 0.00 0.00 0.00 0.01 0.03
0.03 0.01 0.00 0.01 0.01 0.01 0.01 0.01 0.01 0.00 0.00 0.00 0.00 0.00 0.00 0.00 0.00 0.00 0.00 0.00 0.00 0.00 0.00 0.03 0.09 0.22 0.31 0.23 0.12 0.06 0.00 0.00 0.01 0.00 0.00 0.01 0.01 0.02
0.02 0.01 0.01 0.01 0.01 0.01 0.02 0.04 0.03 0.02 0.03 0.05 0.04 0.02 0.01 0.00 0.00 0.00 0.00 0.00 0.00 0.00 0.00 0.00 0.02 0.10 0.31 0.32 0.24 0.17 0.09 0.01 0.00 0.02 0.02 0.01 0.01 0.01
0.02 0.02 0.01 0.01 0.02 0.01 0.01 0.01 0.01 0.01 0.01 0.02 0.01 0.01 0.00 0.00 0.00 0.00 0.00 0.00 0.00 0.00 0.00 0.00 0.01 0.03 0.12 0.27 0.23 0.18 0.19 0.11 0.04 0.02 0.03 0.05 0.03 0.01
0.01 0.05 0.05 0.02 0.00 0.00 0.00 0.00 0.00 0.00 0.00 0.00 0.00 0.00 0.00 0.00 0.00 0.00 0.00 0.00 0.00 0.00 0.00 0.00 0.01 0.02 0.05 0.15 0.21 0.21 0.16 0.17 0.11 0.06 0.06 0.07 0.09 0.10
0.06 0.04 0.00 0.00 0.00 0.00 0.00 0.00 0.00 0.00 0.00 0.00 0.00 0.00 0.00 0.00 0.00 0.00 0.01 0.01 0.01 0.00 0.00 0.00 0.00 0.01 0.03 0.04 0.11 0.16 0.15 0.13 0.11 0.07 0.12 0.16 0.11 0.08
0.03 0.00 0.00 0.00 0.00 0.00 0.00 0.00 0.00 0.00 0.00 0.00 0.00 0.00 0.00 0.00 0.00 0.01 0.01 0.01 0.01 0.00 0.00 0.00 0.00 0.01 0.02 0.05 0.06 0.12 0.11 0.10 0.11 0.14 0.17 0.20 0.13 0.07
0.01 0.00 0.00 0.00 0.01 0.00 0.00 0.00 0.00 0.00 0.00 0.00 0.01 0.00 0.00 0.00 0.00 0.01 0.01 0.02 0.01 0.00 0.00 0.00 0.00 0.01 0.01 0.05 0.06 0.06 0.07 0.04 0.07 0.17 0.21 0.19 0.14 0.05
0.00 0.00 0.00 0.01 0.01 0.01 0.01 0.01 0.01 0.01 0.01 0.01 0.01 0.02 0.01 0.01 0.01 0.01 0.01 0.02 0.01 0.00 0.00 0.00 0.00 0.00 0.01 0.01 0.01 0.02 0.03 0.02 0.02 0.10 0.18 0.25 0.18 0.09
0.00 0.00 0.00 0.00 0.01 0.01 0.01 0.01 0.01 0.02 0.02 0.02 0.03 0.03 0.03 0.02 0.02 0.01 0.01 0.01 0.01 0.00 0.00 0.00 0.00 0.00 0.00 0.01 0.02 0.01 0.02 0.03 0.02 0.04 0.09 0.14 0.21 0.18
0.00 0.01 0.01 0.00 0.01 0.02 0.02 0.01 0.02 0.02 0.02 0.02 0.02 0.03 0.03 0.03 0.03 0.02 0.01 0.01 0.01 0.01 0.01 0.00 0.00 0.00 0.01 0.03 0.03 0.02 0.02 0.03 0.08 0.12 0.18 0.22 0.18 0.15
0.02 0.02 0.02 0.02 0.02 0.02 0.02 0.03 0.03 0.03 0.02 0.02 0.02 0.02 0.03 0.05 0.04 0.02 0.02 0.01 0.00 0.00 0.01 0.01 0.01 0.01 0.01 0.01 0.02 0.02 0.02 0.05 0.12 0.17 0.19 0.22 0.19 0.14
MSLP
1029.06 1028.66 1028.24 1027.59 1027.09 1026.53 1025.92 1025.24 1024.43 1022.45 1019.87 1018.48 1017.72 1016.36 1016.16 1015.78 1015.11 1014.60 1013.81 1012.35 1011.34 1011.36 1011.29 1011.30 1011.80 1012.70 1013.35 1013.83 1014.32 1014.94 1015.64 1016.31 1017.24 1017.97 1018.54 1019.18 1019.64 1020.25
1028.53 1028.12 1027.64 1027.09 1026.58 1026.14 1025.52 1024.86 1024.11 1023.04 1020.53 1019.34 1018.33 1017.83 1017.20 1015.87 1015.00 1014.37 1013.05 1013.14 1011.81 1010.34 1010.23 1010.37 1010.46 1011.22 1011.91 1012.60 1013.19 1013.72 1014.44 1015.09 1015.94 1016.76 1017.40 1018.04 1018.62 1019.28
1027.87 1027.58 1026.97 1026.55 1025.92 1025.49 1025.02 1024.31 1023.43 1022.74 1021.07 1019.20 1018.29 1017.70 1017.15 1016.30 1014.99 1014.17 1013.31 1012.62 1011.80 1010.29 1009.17 1009.28 1009.44 1009.94 1010.49 1011.13 1011.91 1012.50 1013.17 1013.81 1014.68 1015.47 1016.18 1016.78 1017.39 1018.14
1027.14 1026.82 1026.18 1025.83 1025.21 1024.74 1024.25 1023.51 1022.68 1021.97 1021.04 1019.44 1018.24 1017.32 1016.75 1016.05 1015.08 1014.10 1013.33 1012.41 1011.78 1010.73 1008.66 1008.16 1008.51 1008.58 1009.28 1009.66 1010.30 1011.06 1011.80 1012.59 1013.40 1014.13 1014.85 1015.62 1016.18 1016.86
1026.28 1025.86 1025.29 1024.94 1024.25 1023.81 1023.28 1022.54 1021.88 1021.15 1020.31 1019.25 1018.11 1017.10 1016.27 1015.79 1014.70 1013.80 1012.84 1011.73 1011.10 1009.99 1008.50 1007.09 1007.24 1007.49 1007.72 1008.35 1008.85 1009.47 1010.39 1011.18 1012.07 1012.90 1013.66 1014.38 1014.87 1015.51
1025.29 1024.75 1024.17 1023.79 1023.20 1022.71 1022.14 1021.44 1020.81 1020.14 1019.39 1018.60 1017.77 1016.94 1015.96 1015.32 1014.68 1013.62 1012.10 1011.34 1009.67 1009.04 1008.00 1005.56 1005.65 1006.07 1006.44 1006.75 1007.33 1008.01 1008.85 1009.59 1010.57 1011.42 1012.24 1013.00 1013.69 1014.15
1024.00 1023.43 1022.75 1022.23 1021.60 1021.15 1020.61 1019.85 1019.44 1018.80 1018.19 1017.38 1016.49 1016.02 1015.11 1014.54 1014.10 1013.29 1012.15 1011.31 1010.03 1009.08 1007.42 1006.74 1004.51 1004.91 1005.17 1005.67 1005.85 1006.53 1007.25 1008.06 1008.95 1009.85 1010.75 1011.46 1012.30 1012.93
1022.58 1022.16 1021.58 1020.91 1020.38 1019.75 1019.02 1018.47 1018.09 1017.43 1016.70 1016.15 1015.35 1014.77 1014.41 1013.81 1013.43 1012.97 1012.17 1011.33 1009.63 1008.65 1007.92 1006.44 1006.05 1003.79 1003.34 1003.79 1004.44 1005.15 1005.98 1006.52 1007.36 1008.16 1009.16 1009.99 1010.82 1011.51
1021.72 1021.05 1020.32 1019.73 1019.16 1018.60 1017.99 1017.31 1016.62 1016.01 1015.38 1014.83 1014.00 1013.59 1013.17 1012.98 1012.78 1012.14 1011.69 1011.17 1009.83 1009.32 1009.18 1007.28 1006.78 1005.57 1004.11 1002.34 1002.92 1003.72 1004.63 1005.28 1006.08 1006.79 1007.50 1008.40 1009.31 1010.13
1020.66 1019.98 1019.26 1018.54 1018.06 1017.43 1016.76 1016.07 1015.40 1014.83 1014.15 1013.78 1013.10 1012.43 1012.39 1012.32 1011.95 1011.53 1011.06 1010.33 1009.24 1009.03 1009.50 1007.40 1005.81 1005.19 1004.47 1003.16 1001.33 1002.12 1002.97 1003.69 1004.57 1005.22 1005.90 1006.69 1007.83 1008.64
1019.33 1018.65 1017.94 1017.10 1016.50 1015.66 1014.95 1014.30 1013.60 1012.78 1012.31 1011.86 1011.28 1010.73 1010.66 1010.73 1010.69 1010.58 1009.67 1009.51 1007.73 1007.47 1007.94 1006.85 1005.12 1004.79 1004.47 1003.06 1001.00 1000.20 1001.17 1002.03 1002.52 1003.48 1004.35 1005.12 1005.98 1007.17
1017.83 1017.10 1016.43 1015.59 1014.71 1014.07 1013.50 1012.98 1012.04 1011.29 1011.15 1010.63 1010.02 1009.45 1009.27 1009.11 1009.14 1008.95 1008.60 1007.94 1007.09 1006.37 1006.59 1006.64 1005.98 1005.34 1003.13 1000.45 1000.03 998.73 999.85 1000.07 1000.61 1001.75 1002.67 1003.52 1004.72 1005.78
1016.64 1015.78 1015.12 1014.42 1013.51 1012.76 1012.25 1011.61 1010.81 1010.30 1009.57 1009.07 1008.40 1007.88 1007.65 1007.54 1007.41 1007.32 1007.01 1006.63 1006.07 1005.09 1005.30 1005.70 1004.93 1004.67 1003.69 1002.07 1000.46 998.28 997.98 998.66 999.50 1000.39 1001.11 1001.84 1002.90 1003.74
1015.76 1014.85 1013.94 1013.03 1012.00 1011.25 1010.54 1009.80 1008.98 1008.27 1007.84 1007.26 1006.66 1005.97 1005.78 1005.65 1005.39 1005.50 1005.24 1005.00 1004.71 1003.93 1004.66 1004.71 1004.13 1004.41 1004.18 1003.32 1002.23 999.96 997.11 996.98 997.92 998.49 999.40 1000.46 1001.35 1002.05
1014.63 1013.59 1012.43 1011.34 1010.48 1009.59 1009.15 1008.53 1007.79 1007.27 1006.76 1006.11 1005.40 1004.71 1004.41 1004.14 1004.21 1004.11 1003.91 1003.69 1003.37 1002.67 1003.12 1003.26 1003.10 1003.30 1003.26 1002.45 1001.60 1000.51 999.64 996.81 996.16 997.01 997.66 998.66 999.69 1000.64
1013.41 1012.34 1011.14 1010.41 1009.71 1008.93 1008.09 1007.55 1007.06 1006.43 1005.78 1005.10 1004.44 1003.82 1003.53 1003.32 1003.07 1003.06 1002.93 1002.52 1002.14 1000.94 1001.36 1001.38 1001.55 1002.11 1001.66 1001.14 1000.86 999.59 999.38 999.70 995.97 995.67 996.08 997.38 998.17 998.78
1012.03 1011.16 1010.47 1009.88 1009.17 1008.35 1007.56 1006.84 1006.19 1005.55 1004.83 1004.28 1003.68 1003.02 1002.52 1002.18 1001.58 1001.52 1001.33 1001.02 1000.59 999.67 999.64 999.67 999.81 1000.11 999.99 999.95 999.25 998.47 998.16 998.11 997.95 995.25 995.37 996.00 996.53 997.25
1011.66 1011.37 1010.58 1009.80 1008.94 1007.92 1006.92 1006.02 1005.38 1004.64 1003.91 1003.29 1002.55 1001.95 1001.28 1000.73 1000.20 1000.12 1000.02 999.72 999.09 998.16 998.17 998.21 998.36 998.44 998.33 997.63 997.73 997.15 996.77 997.04 997.12 996.20 994.26 994.79 995.53 996.03
1012.08 1011.16 1010.47 1009.48 1008.32 1007.30 1006.28 1005.31 1004.23 1003.45 1002.77 1002.02 1001.23 1000.49 999.83 999.13 998.65 998.32 998.19 997.90 997.12 996.37 996.29 996.72 996.81 996.79 996.76 995.07 994.30 995.13 995.57 995.81 996.20 995.61 994.14 993.64 994.06 995.04
1011.80 1010.97 1009.78 1008.61 1007.50 1006.46 1005.38 1004.28 1003.11 1002.09 1001.23 1000.35 999.55 998.78 997.97 997.08 996.54 996.10 995.93 995.71 995.10 994.70 994.48 994.67 994.81 994.62 994.39 993.48 994.09 993.33 993.47 993.35 993.73 994.12 994.13 994.15 994.93 994.63
1011.11 1009.93 1008.83 1007.76 1006.57 1005.38 1004.10 1002.90 1001.76 1000.59 999.64 998.58 997.48 996.65 995.56 994.97 994.01 993.68 993.37 993.16 992.97 992.76 992.31 992.28 992.45 993.00 992.78 992.92 992.81 991.64 991.09 990.81 991.39 992.24 993.14 993.81 994.46 994.89
1010.14 1009.07 1007.82 1006.67 1005.39 1004.05 1002.67 1001.33 1000.06 998.75 997.46 996.31 995.01 993.79 992.99 992.32 991.46 991.04 990.72 990.40 990.21 990.11 990.15 990.65 991.29 991.51 991.26 991.31 991.02 991.22 990.27 991.15 991.69 991.09 991.72 992.18 992.54 993.21
1009.42 1008.24 1006.91 1005.54 1003.99 1002.54 1001.06 999.63 998.14 996.58 995.06 993.62 991.86 990.71 989.94 989.17 988.65 988.17 987.79 987.44 987.52 987.84 988.12 988.56 989.17 989.47 989.30 989.43 989.76 990.19 990.46 990.17 990.36 990.99 992.19 992.36 992.22 991.65
Thickness
5309 5319 5329 5340 5350 5363 5376 5388 5399 5428 5463 5487 5494 5510 5523 5534 5546 5556 5569 5584 5596 5601 5608 5611 5613 5612 5611 5613 5614 5615 5615 5611 5607 5605 5604 5602 5601 5598
5269 5278 5289 5301 5314 5327 5341 5356 5371 5389 5424 5451 5465 5475 5485 5505 5523 5535 5553 5559 5576 5594 5602 5605 5608 5607 5606 5607 5609 5612 5611 5610 5606 5602 5601 5600 5598 5596
5231 5238 5252 5259 5275 5289 5303 5320 5340 5357 5383 5420 5436 5451 5459 5477 5499 5512 5529 5543 5556 5576 5593 5599 5602 5600 5602 5604 5604 5606 5607 5607 5603 5600 5598 5598 5597 5593
5202 5206 5218 5223 5236 5249 5263 5284 5303 5323 5347 5378 5402 5422 5436 5448 5472 5491 5504 5521 5534 5552 5577 5588 5592 5595 5597 5600 5601 5602 5603 5602 5600 5598 5597 5595 5595 5593
5182 5185 5193 5197 5211 5220 5231 5248 5267 5287 5309 5339 5366 5387 5408 5424 5447 5467 5486 5505 5519 5535 5558 5578 5583 5587 5590 5594 5595 5598 5598 5598 5597 5594 5594 5592 5594 5593
5168 5173 5178 5180 5189 5198 5207 5221 5236 5252 5274 5299 5327 5351 5374 5396 5415 5441 5467 5484 5510 5522 5541 5572 5578 5581 5584 5593 5593 5591 5594 5596 5594 5593 5592 5592 5591 5592
5160 5164 5169 5172 5179 5184 5191 5205 5214 5228 5245 5267 5295 5317 5344 5365 5386 5408 5436 5455 5483 5502 5525 5538 5568 5572 5576 5581 5589 5587 5589 5592 5592 5592 5590 5591 5590 5589
5153 5156 5160 5165 5169 5174 5182 5191 5200 5209 5225 5243 5268 5287 5310 5335 5354 5375 5399 5422 5459 5482 5492 5520 5530 5560 5573 5578 5583 5585 5584 5588 5588 5590 5589 5588 5588 5588
5143 5148 5154 5159 5161 5165 5171 5179 5188 5199 5209 5224 5243 5261 5280 5302 5329 5352 5368 5391 5425 5445 5454 5486 5505 5524 5546 5570 5574 5577 5577 5580 5582 5584 5587 5586 5586 5584
5135 5141 5147 5153 5155 5158 5163 5170 5178 5185 5198 5208 5222 5246 5254 5272 5291 5316 5339 5361 5394 5418 5424 5459 5489 5507 5526 5544 5568 5570 5571 5575 5575 5578 5582 5584 5581 5581
5132 5138 5143 5150 5153 5158 5162 5168 5176 5188 5195 5200 5211 5228 5238 5249 5268 5285 5313 5331 5372 5397 5406 5435 5475 5488 5501 5527 5553 5568 5567 5570 5574 5573 5574 5578 5579 5576
5132 5138 5143 5148 5154 5158 5160 5164 5175 5187 5184 5191 5200 5212 5223 5234 5246 5264 5292 5311 5345 5369 5394 5408 5440 5453 5486 5527 5542 5565 5563 5570 5573 5569 5570 5572 5569 5567
5129 5137 5141 5145 5151 5155 5157 5162 5171 5175 5182 5186 5197 5207 5214 5223 5236 5249 5272 5294 5319 5350 5377 5383 5413 5430 5451 5486 5514 5548 5563 5567 5566 5564 5566 5567 5566 5566
5124 5132 5138 5145 5152 5156 5159 5164 5170 5175 5179 5186 5194 5206 5213 5220 5233 5239 5259 5276 5298 5333 5345 5357 5386 5403 5421 5449 5473 5510 5550 5562 5559 5563 5564 5563 5561 5563
5121 5129 5139 5147 5152 5157 5159 5162 5166 5170 5173 5181 5190 5201 5208 5215 5217 5223 5236 5255 5277 5312 5323 5343 5365 5385 5403 5432 5456 5478 5497 5538 5555 5559 5562 5560 5558 5557
5120 5128 5137 5141 5146 5150 5155 5157 5159 5163 5167 5175 5182 5191 5195 5199 5204 5211 5219 5240 5257 5294 5308 5331 5352 5363 5390 5420 5438 5464 5479 5484 5537 5552 5559 5555 5554 5555
5120 5128 5133 5135 5138 5143 5147 5151 5154 5157 5161 5165 5171 5180 5186 5190 5200 5204 5209 5226 5239 5275 5293 5317 5341 5354 5376 5399 5423 5451 5467 5483 5499 5536 5545 5549 5553 5554
5115 5115 5120 5124 5128 5134 5140 5146 5149 5152 5156 5159 5164 5169 5176 5183 5191 5193 5198 5208 5228 5258 5277 5299 5321 5340 5360 5387 5412 5440 5460 5470 5485 5504 5536 5543 5545 5548
5099 5105 5108 5114 5120 5126 5132 5138 5145 5149 5151 5154 5158 5163 5168 5174 5180 5187 5192 5199 5220 5247 5267 5285 5302 5321 5341 5383 5423 5434 5450 5463 5473 5489 5516 5532 5543 5542
5091 5096 5103 5109 5114 5119 5126 5132 5138 5144 5147 5151 5155 5158 5163 5168 5173 5181 5188 5195 5213 5234 5253 5270 5287 5311 5338 5381 5401 5430 5442 5458 5472 5486 5495 5503 5515 5526
5088 5096 5100 5105 5111 5117 5123 5129 5133 5140 5144 5149 5154 5157 5164 5166 5176 5181 5187 5196 5208 5220 5239 5258 5284 5309 5341 5364 5366 5406 5433 5459 5475 5482 5484 5496 5498 5506
5087 5092 5099 5104 5110 5115 5122 5127 5133 5140 5146 5150 5157 5163 5168 5172 5180 5185 5191 5199 5207 5221 5235 5254 5269 5291 5318 5333 5364 5394 5423 5433 5446 5465 5472 5484 5499 5504
5083 5090 5097 5103 5110 5116 5121 5127 5134 5141 5149 5154 5165 5171 5174 5180 5185 5192 5199 5206 5212 5217 5228 5242 5257 5277 5305 5329 5355 5373 5390 5418 5434 5450 5453 5468 5483 5502